Location: Lichtensteig
(47.3376°N, 9.0841°E)
Time: 20:05:25
(UTC+00:00)

FENGYUN 1C DEB - Visible Passes

Search period start: 19 September 2021 00:00
Search period end: 29 September 2021 00:00
Orbit: 838 x 876 km, 98.7° (Epoch: 19 September)

Date Brightness Start Highest point End Pass type
(mag) Time Alt. Az. Time Alt. Az. Time Alt. Az.
19 Sep ? 19:09:15 10° SW 19:13:23 21° W 19:17:32 10° NW visible
20 Sep ? 18:58:53 10° SW 19:03:25 25° W 19:07:59 10° NW visible
21 Sep ? 18:48:38 10° SSW 18:53:28 29° W 18:58:22 10° NW visible
22 Sep ? 18:38:26 10° SSW 18:43:32 35° W 18:48:41 10° NNW visible
23 Sep ? 18:28:20 10° SSW 18:33:37 42° W 18:38:58 10° NNW visible
24 Sep ? 18:18:16 10° S 18:23:43 50° W 18:29:13 10° NNW visible
25 Sep ? 18:08:17 10° S 18:13:50 60° W 18:19:25 10° NNW visible
26 Sep ? 17:58:20 10° S 18:03:57 71° WSW 18:09:38 10° NNW visible
26 Sep ? 19:44:26 10° W 19:45:47 11° W 19:47:09 10° WNW visible
27 Sep ? 17:48:27 10° SSE 17:54:06 84° WSW 17:59:47 10° NNW visible
27 Sep ? 19:33:06 10° WSW 19:35:46 13° W 19:38:27 10° WNW visible
28 Sep ? 17:38:37 10° SSE 17:44:15 83° ENE 17:49:56 10° NNW visible
28 Sep ? 19:22:20 10° SW 19:25:46 16° W 19:29:14 10° NW visible
